Total_Precipitation_Accumulation
1.29 1.52 1.71 1.89 2.14 2.33 2.44 2.61 2.88 3.20 3.41 3.73 4.02 4.17 4.25 4.44 4.54 4.57 4.65 4.65 4.65 4.75 4.81 4.67 4.60 4.45 4.32 4.12 4.01 3.83 3.62 3.37 3.29 3.13 2.72 2.22 1.91 1.87 1.80 1.84 1.98 1.99 1.93
1.33 1.64 1.94 2.36 2.57 2.65 2.68 2.90 3.21 3.51 3.68 4.05 4.48 4.85 5.00 5.09 5.12 5.13 5.32 5.44 5.47 5.62 5.68 5.63 5.42 5.21 4.92 4.45 4.06 3.84 3.64 3.33 3.38 3.32 3.19 2.57 2.13 1.77 1.45 1.53 1.61 1.68 1.83
1.55 1.79 2.10 2.36 2.53 2.62 2.71 2.90 3.32 3.78 4.23 4.68 5.12 5.50 5.76 5.78 5.70 5.44 5.59 5.75 5.69 5.76 5.92 5.88 5.65 5.30 4.74 4.21 4.00 3.90 3.77 3.56 3.47 3.33 3.39 2.93 2.46 2.07 1.62 1.39 1.32 1.42 1.49
1.54 1.78 1.99 2.23 2.37 2.52 2.75 2.94 3.29 3.92 4.43 4.82 5.43 5.95 6.24 6.46 6.58 6.39 6.09 5.88 5.66 5.55 5.44 5.26 4.85 4.45 4.11 3.82 3.70 3.72 3.56 3.53 3.40 3.31 3.03 2.80 2.51 2.26 1.88 1.52 1.33 1.32 1.33
1.40 1.66 1.76 1.98 2.27 2.38 2.51 2.72 3.20 3.80 4.50 5.14 5.70 6.20 6.64 6.87 6.82 6.42 6.01 5.52 5.15 4.74 4.37 4.00 3.73 3.63 3.47 3.26 3.16 3.12 3.04 2.90 2.83 2.84 2.81 2.74 2.49 2.17 1.95 1.71 1.50 1.47 1.37
1.28 1.36 1.45 1.61 1.93 2.04 2.24 2.48 2.89 3.60 4.34 4.98 5.60 6.05 6.43 6.47 6.15 5.62 5.11 4.79 4.42 3.95 3.48 3.23 3.00 2.88 2.71 2.49 2.37 2.35 2.39 2.47 2.52 2.57 2.55 2.51 2.48 2.32 2.22 2.04 1.81 1.67 1.62
1.16 1.24 1.27 1.38 1.57 1.73 2.01 2.39 2.87 3.44 3.91 4.42 4.93 5.26 5.49 5.57 5.49 5.16 4.72 4.42 3.98 3.55 3.11 2.68 2.45 2.22 2.03 1.92 1.87 1.83 1.82 1.94 2.09 2.22 2.27 2.25 2.20 2.16 2.18 2.23 2.05 1.81 1.68
1.24 1.37 1.45 1.52 1.62 1.75 1.92 2.29 2.75 3.16 3.37 3.59 3.98 4.26 4.41 4.48 4.37 4.13 3.78 3.50 3.21 2.94 2.61 2.20 1.85 1.62 1.49 1.42 1.46 1.48 1.50 1.55 1.66 1.77 1.92 1.95 1.90 1.96 2.04 2.11 2.18 2.11 1.84
1.23 1.40 1.54 1.63 1.71 1.76 1.91 2.05 2.31 2.54 2.77 2.95 3.11 3.23 3.27 3.22 3.11 2.90 2.66 2.45 2.27 2.05 1.84 1.62 1.45 1.32 1.27 1.25 1.25 1.23 1.23 1.30 1.39 1.47 1.58 1.70 1.73 1.77 1.85 1.96 2.06 2.12 2.02
1.26 1.38 1.44 1.53 1.58 1.53 1.62 1.70 1.90 2.00 2.16 2.30 2.32 2.22 2.23 2.22 2.07 1.90 1.81 1.68 1.50 1.39 1.32 1.23 1.19 1.13 1.06 1.09 1.13 1.07 1.06 1.16 1.20 1.21 1.29 1.40 1.49 1.57 1.66 1.78 1.88 1.93 1.91
1.21 1.24 1.26 1.28 1.31 1.25 1.26 1.35 1.50 1.70 1.79 1.79 1.81 1.73 1.67 1.55 1.46 1.35 1.31 1.23 1.14 1.12 1.08 1.06 1.04 1.01 0.99 0.98 0.97 0.95 0.95 1.01 1.14 1.22 1.27 1.32 1.37 1.45 1.48 1.50 1.55 1.68 1.79
1.22 1.15 1.11 1.07 1.07 1.03 1.05 1.13 1.20 1.30 1.34 1.36 1.36 1.35 1.29 1.20 1.16 1.11 1.07 1.07 1.04 1.00 1.00 0.99 0.98 0.99 1.02 1.03 0.99 0.90 0.89 0.95 1.04 1.11 1.16 1.16 1.16 1.23 1.33 1.39 1.38 1.43 1.55
1.24 1.20 1.13 1.04 1.05 1.10 1.12 1.03 1.04 1.10 1.11 1.14 1.14 1.11 1.15 1.12 1.09 1.10 1.11 1.09 1.04 1.00 0.95 0.90 0.92 0.98 1.01 1.00 0.97 0.91 0.89 0.89 0.94 0.96 0.96 0.97 1.00 1.01 1.05 1.11 1.17 1.21 1.24
1.20 1.23 1.26 1.22 1.14 1.14 1.23 1.13 1.03 1.03 1.11 1.09 1.07 0.98 0.95 0.98 1.00 1.02 1.04 1.01 0.96 0.95 0.95 0.93 0.90 0.89 0.84 0.76 0.70 0.71 0.75 0.75 0.75 0.76 0.76 0.81 0.89 0.90 0.92 0.90 0.94 1.00 1.11
1.36 1.30 1.25 1.26 1.20 1.15 1.18 1.13 1.08 1.05 1.24 1.21 1.17 1.07 0.97 0.97 0.98 0.98 0.95 0.91 0.86 0.80 0.79 0.78 0.74 0.68 0.58 0.50 0.47 0.52 0.55 0.59 0.60 0.63 0.61 0.61 0.71 0.80 0.78 0.72 0.81 0.92 1.03
1.56 1.52 1.42 1.40 1.39 1.29 1.25 1.18 1.17 1.17 1.25 1.30 1.36 1.38 1.29 1.22 1.18 1.07 0.96 0.94 0.92 0.83 0.72 0.67 0.65 0.59 0.46 0.45 0.42 0.46 0.54 0.59 0.61 0.64 0.64 0.58 0.58 0.61 0.59 0.59 0.71 0.86 0.90
1.79 1.75 1.68 1.60 1.54 1.47 1.43 1.39 1.32 1.29 1.30 1.36 1.41 1.38 1.36 1.35 1.29 1.12 1.00 0.98 0.94 0.91 0.87 0.76 0.68 0.66 0.59 0.49 0.41 0.44 0.53 0.60 0.62 0.61 0.60 0.52 0.49 0.54 0.55 0.56 0.60 0.68 0.70
1.73 1.71 1.72 1.69 1.67 1.56 1.49 1.44 1.37 1.34 1.36 1.37 1.38 1.34 1.24 1.24 1.17 1.07 1.03 0.99 0.91 0.88 0.85 0.80 0.72 0.64 0.50 0.36 0.30 0.32 0.43 0.55 0.58 0.56 0.56 0.58 0.57 0.53 0.53 0.53 0.56 0.66 0.72
1.84 1.77 1.71 1.62 1.58 1.52 1.45 1.41 1.40 1.39 1.39 1.37 1.28 1.21 1.12 1.10 1.03 1.00 0.93 0.84 0.77 0.74 0.71 0.65 0.59 0.58 0.46 0.26 0.21 0.25 0.42 0.56 0.53 0.47 0.44 0.48 0.52 0.53 0.51 0.55 0.67 0.75 0.80
1.70 1.57 1.41 1.32 1.35 1.38 1.36 1.34 1.34 1.34 1.31 1.13 0.96 0.91 0.92 0.92 0.88 0.81 0.74 0.70 0.67 0.66 0.57 0.50 0.49 0.49 0.45 0.29 0.23 0.27 0.41 0.50 0.48 0.47 0.44 0.41 0.42 0.43 0.43 0.54 0.68 0.79 0.79
1.25 1.17 1.10 1.16 1.23 1.24 1.19 1.18 1.13 1.13 1.07 0.96 0.83 0.80 0.78 0.73 0.70 0.68 0.67 0.62 0.58 0.61 0.59 0.56 0.51 0.45 0.36 0.24 0.20 0.22 0.31 0.42 0.46 0.47 0.49 0.44 0.33 0.31 0.35 0.48 0.57 0.65 0.63
0.92 0.88 0.90 0.96 1.01 0.98 0.98 1.04 1.03 0.94 0.88 0.90 0.84 0.79 0.69 0.59 0.59 0.68 0.65 0.60 0.63 0.66 0.65 0.63 0.56 0.43 0.33 0.21 0.17 0.19 0.24 0.29 0.41 0.50 0.48 0.42 0.33 0.32 0.36 0.45 0.53 0.54 0.63
0.68 0.71 0.73 0.77 0.86 0.86 0.88 0.93 0.94 0.84 0.83 0.89 0.87 0.76 0.62 0.63 0.63 0.65 0.62 0.55 0.53 0.50 0.47 0.47 0.47 0.41 0.32 0.25 0.19 0.22 0.25 0.28 0.32 0.38 0.35 0.32 0.34 0.37 0.49 0.52 0.52 0.62 0.82
0.52 0.59 0.62 0.62 0.69 0.72 0.77 0.82 0.76 0.73 0.86 0.96 0.89 0.74 0.61 0.57 0.54 0.53 0.47 0.42 0.41 0.40 0.39 0.37 0.35 0.35 0.35 0.31 0.28 0.29 0.29 0.30 0.33 0.36 0.37 0.41 0.47 0.52 0.60 0.69 0.79 0.83 0.88
0.49 0.54 0.58 0.57 0.54 0.57 0.64 0.61 0.62 0.72 0.95 0.94 0.81 0.68 0.54 0.48 0.44 0.37 0.30 0.25 0.22 0.20 0.25 0.26 0.25 0.28 0.29 0.26 0.27 0.26 0.26 0.27 0.27 0.29 0.46 0.68 0.74 0.81 0.87 0.90 0.95 1.00 0.93
0.44 0.52 0.52 0.47 0.49 0.55 0.57 0.54 0.54 0.63 0.82 0.84 0.65 0.54 0.46 0.39 0.32 0.28 0.26 0.19 0.14 0.12 0.11 0.12 0.13 0.15 0.17 0.17 0.18 0.20 0.22 0.25 0.27 0.33 0.57 0.69 0.74 0.82 0.83 0.84 0.87 0.93 0.93